M I D A S
Marine Information and Data Acquisition System
Tripno 2228 of the Zeeleeuw from 2011-10-10 06:46:27 to 2011-10-10 09:52:16
Back to CruiseResearch ActivitiesStationsMapUnderway DataData graphs

EquipmentUnitsComments
TimeDGPSUTC
LatitudeDGPSDM.mWGS84
LongitudeDGPSDM.mWGS84
SpeedMeteo Stationm/sRelative wind speed
DirectionMeteo StationdegRelative wind direction
TemperatureMeteo Stationdeg CelciusAir temperature
PressureMeteo StationPaAtmospheric pressure
HumidityMeteo Station%Relative humidity
Missing or incorrect values are displayed as -999
Metereological data collected by the RV Zeeleeuw from 2011-10-10 06:42:49 to 2011-10-10 10:20:33
                                                                                    Next 1000 lines
Time Latitude Longitude Speed Direction Temperature Pressure Humidity
2011-10-10 06:43:00 51°13.637 2°56.013 6 58 16.5 101600 53
2011-10-10 06:43:04 51°13.637 2°56.011 14 23 16.5 101610 54
2011-10-10 06:43:10 51°13.639 2°56.005 7.8 42 16.5 101610 54
2011-10-10 06:43:14 51°13.64 2°56.001 10.5 36 16.5 101610 53
2011-10-10 06:43:21 51°13.642 2°55.992 10 52 16.5 101610 53
2011-10-10 06:43:26 51°13.644 2°55.985 9.3 20 16.5 101610 53
2011-10-10 06:43:32 51°13.646 2°55.976 14.8 38 16.5 101610 53
2011-10-10 06:43:38 51°13.648 2°55.967 10.2 22 16.6 101600 54
2011-10-10 06:43:43 51°13.65 2°55.959 6.4 60 16.6 101600 54
2011-10-10 06:43:48 51°13.652 2°55.952 5 42 16.6 101590 53
2011-10-10 06:43:53 51°13.653 2°55.944 6.7 36 16.6 101590 53
2011-10-10 06:43:58 51°13.655 2°55.937 5.8 35 16.6 101600 54
2011-10-10 06:44:03 51°13.656 2°55.93 8.1 55 16.6 101600 54
2011-10-10 06:44:08 51°13.657 2°55.924 10 40 16.6 101610 53
2011-10-10 06:44:13 51°13.658 2°55.92 14.1 60 16.6 101610 53
2011-10-10 06:44:18 51°13.659 2°55.917 12 28 16.6 101600 54
2011-10-10 06:44:23 51°13.659 2°55.914 9.1 58 16.6 101600 54
2011-10-10 06:44:27 51°13.66 2°55.912 5.9 27 16.6 101590 53
2011-10-10 06:44:33 51°13.661 2°55.908 4.5 57 16.6 101590 53
2011-10-10 06:44:37 51°13.662 2°55.905 5.4 23 16.6 101610 53
2011-10-10 06:44:42 51°13.663 2°55.901 10.4 43 16.6 101610 53
2011-10-10 06:44:47 51°13.664 2°55.897 9.1 24 16.5 101600 53
2011-10-10 06:44:52 51°13.664 2°55.892 6.6 57 16.5 101600 53
2011-10-10 06:44:57 51°13.665 2°55.888 5.2 23 16.6 101600 53
2011-10-10 06:45:02 51°13.666 2°55.882 10 55 16.6 101600 53
2011-10-10 06:45:08 51°13.667 2°55.876 6.9 26 16.6 101600 52
2011-10-10 06:45:13 51°13.668 2°55.871 7.3 43 16.6 101600 52
2011-10-10 06:45:18 51°13.669 2°55.865 9.3 27 16.6 101610 54
2011-10-10 06:45:23 51°13.671 2°55.859 10.3 56 16.6 101610 54
2011-10-10 06:45:28 51°13.672 2°55.852 8.4 27 16.6 101590 54
2011-10-10 06:45:33 51°13.673 2°55.845 9.2 52 16.6 101590 54
2011-10-10 06:45:38 51°13.674 2°55.837 5.5 20 16.5 101600 53
2011-10-10 06:45:43 51°13.676 2°55.829 4.9 57 16.5 101600 53
2011-10-10 06:45:48 51°13.677 2°55.821 5.4 27 16.6 101600 53
2011-10-10 06:45:53 51°13.678 2°55.812 6.8 58 16.6 101600 53
2011-10-10 06:45:58 51°13.679 2°55.804 7.7 19 16.6 101600 54
2011-10-10 06:46:02 51°13.68 2°55.797 6.2 51 16.6 101600 54
2011-10-10 06:46:08 51°13.681 2°55.787 6.8 22 16.6 101600 54
2011-10-10 06:46:13 51°13.682 2°55.78 6.6 60 16.6 101600 54
2011-10-10 06:46:18 51°13.683 2°55.773 7 27 16.6 101600 54
2011-10-10 06:46:23 51°13.683 2°55.766 7.5 39 16.6 101600 54
2011-10-10 06:46:28 51°13.684 2°55.759 8.8 24 16.6 101600 53
2011-10-10 06:46:33 51°13.684 2°55.753 5 40 16.6 101600 53
2011-10-10 06:46:38 51°13.684 2°55.747 4.2 28 16.6 101590 53
2011-10-10 06:46:42 51°13.685 2°55.745 3 59 16.6 101590 53
2011-10-10 06:46:47 51°13.685 2°55.744 3.6 26 16.6 101600 53
2011-10-10 06:46:52 51°13.686 2°55.744 4.3 53 16.6 101600 53
2011-10-10 06:46:57 51°13.687 2°55.746 8.6 24 16.6 101600 53
2011-10-10 06:47:02 51°13.689 2°55.748 11.5 37 16.6 101600 53
2011-10-10 06:47:06 51°13.69 2°55.75 7.6 21 16.6 101600 54
2011-10-10 06:47:12 51°13.692 2°55.752 13.3 52 16.6 101600 54
2011-10-10 06:47:17 51°13.694 2°55.754 11.3 21 16.6 101630 53
2011-10-10 06:47:22 51°13.695 2°55.754 6.4 270 16.6 101630 53
2011-10-10 06:47:26 51°13.695 2°55.755 8.4 266 16.6 101620 53
2011-10-10 06:47:31 51°13.695 2°55.754 12.3 268 16.6 101620 53
2011-10-10 06:47:36 51°13.693 2°55.753 12.3 267 16.6 101620 53
2011-10-10 06:47:41 51°13.69 2°55.752 9.6 261 16.6 101620 53
2011-10-10 06:47:46 51°13.688 2°55.751 6.2 266 16.6 101610 53
2011-10-10 06:47:51 51°13.686 2°55.75 5.2 268 16.6 101610 53
2011-10-10 06:47:57 51°13.686 2°55.75 8.6 257 16.6 101610 53
2011-10-10 06:48:03 51°13.687 2°55.75 3.5 33 16.6 101610 53
2011-10-10 06:48:08 51°13.69 2°55.751 4.9 261 16.6 101610 54
2011-10-10 06:48:13 51°13.693 2°55.749 4.5 256 16.6 101610 54
2011-10-10 06:48:18 51°13.697 2°55.748 6.6 247 16.6 101610 54
2011-10-10 06:48:22 51°13.701 2°55.745 9.4 247 16.6 101610 54
2011-10-10 06:48:28 51°13.708 2°55.74 8.7 260 16.6 101610 54
2011-10-10 06:48:33 51°13.713 2°55.734 8.4 232 16.6 101610 54
2011-10-10 06:48:38 51°13.72 2°55.728 10 23 16.6 101610 53
2011-10-10 06:48:42 51°13.726 2°55.723 11.8 242 16.6 101610 53
2011-10-10 06:48:47 51°13.733 2°55.716 13.8 24 16.6 101610 53
2011-10-10 06:48:53 51°13.743 2°55.707 9.7 241 16.6 101610 53
2011-10-10 06:48:58 51°13.751 2°55.699 12.3 242 16.6 101600 53
2011-10-10 06:49:02 51°13.758 2°55.692 9.8 245 16.6 101600 53
2011-10-10 06:49:08 51°13.769 2°55.681 10.5 252 16.6 101590 53
2011-10-10 06:49:12 51°13.776 2°55.674 8.9 302 16.6 101590 53
2011-10-10 06:49:18 51°13.788 2°55.665 6 22 16.6 101560 53
2011-10-10 06:49:22 51°13.796 2°55.658 4.9 242 16.6 101560 53
2011-10-10 06:49:26 51°13.804 2°55.651 4.8 319 16.6 101620 53
2011-10-10 06:49:32 51°13.817 2°55.641 5.2 316 16.6 101620 53
2011-10-10 06:49:36 51°13.825 2°55.635 5.3 20 16.6 101600 54
2011-10-10 06:49:42 51°13.839 2°55.626 4.9 324 16.6 101600 54
2011-10-10 06:49:46 51°13.848 2°55.62 5 324 16.6 101600 54
2011-10-10 06:49:52 51°13.861 2°55.61 8.1 308 16.6 101600 54
2011-10-10 06:49:56 51°13.87 2°55.604 7.6 261 16.6 101600 52
2011-10-10 06:50:02 51°13.883 2°55.595 10.6 238 16.6 101600 52
2011-10-10 06:50:06 51°13.892 2°55.589 11.7 24 16.6 101600 53
2011-10-10 06:50:10 51°13.901 2°55.582 11.1 36 16.6 101600 53
2011-10-10 06:50:16 51°13.915 2°55.573 10.8 22 16.6 101600 54
2011-10-10 06:50:20 51°13.924 2°55.568 17.7 33 16.6 101600 54
2011-10-10 06:50:26 51°13.939 2°55.557 12.9 20 16.6 101590 53
2011-10-10 06:50:30 51°13.948 2°55.551 6.4 244 16.6 101590 53
2011-10-10 06:50:34 51°13.957 2°55.544 7.7 27 16.6 101590 54
2011-10-10 06:50:40 51°13.972 2°55.535 6.6 31 16.6 101590 54
2011-10-10 06:50:46 51°13.986 2°55.525 9 26 16.6 101600 54
2011-10-10 06:50:50 51°13.996 2°55.519 4.6 240 16.6 101600 54
2011-10-10 06:50:54 51°14.006 2°55.512 7.8 25 16.6 101580 53
2011-10-10 06:50:58 51°14.016 2°55.506 3.6 37 16.6 101580 53
2011-10-10 06:51:04 51°14.031 2°55.496 3.1 20 16.6 101600 53
2011-10-10 06:51:10 51°14.046 2°55.486 14.5 250 16.6 101600 53
2011-10-10 06:51:14 51°14.055 2°55.479 9.8 26 16.6 101600 53
2011-10-10 06:51:19 51°14.068 2°55.471 8.3 250 16.6 101600 53
2011-10-10 06:51:24 51°14.08 2°55.462 11 253 16.6 101590 53
2011-10-10 06:51:30 51°14.095 2°55.452 11.4 33 16.6 101590 53
2011-10-10 06:51:34 51°14.104 2°55.445 6.3 244 16.6 101600 54
2011-10-10 06:51:39 51°14.117 2°55.436 11.2 39 16.6 101600 54
2011-10-10 06:51:44 51°14.129 2°55.426 6.7 28 16.6 101590 53
2011-10-10 06:51:50 51°14.143 2°55.415 7.4 31 16.6 101590 53
2011-10-10 06:51:54 51°14.153 2°55.407 7.6 317 16.6 101590 53
2011-10-10 06:51:59 51°14.165 2°55.398 12.1 243 16.6 101590 53
2011-10-10 06:52:05 51°14.179 2°55.385 10.1 27 16.6 101590 53
2011-10-10 06:52:10 51°14.191 2°55.375 19.6 241 16.6 101590 53
2011-10-10 06:52:15 51°14.203 2°55.365 13.4 24 16.6 101560 54
2011-10-10 06:52:20 51°14.215 2°55.355 9.7 238 16.6 101560 54
2011-10-10 06:52:25 51°14.227 2°55.344 9.5 28 16.5 101580 54
2011-10-10 06:52:30 51°14.239 2°55.334 13.7 244 16.5 101580 54
2011-10-10 06:52:35 51°14.25 2°55.324 14.2 22 16.6 101560 52
2011-10-10 06:52:42 51°14.267 2°55.31 9.1 240 16.6 101560 52
2011-10-10 06:52:46 51°14.277 2°55.302 7.5 23 16.5 101600 54
2011-10-10 06:52:51 51°14.289 2°55.291 15 245 16.5 101600 54
2011-10-10 06:52:56 51°14.301 2°55.28 14.8 24 16.5 101570 54
2011-10-10 06:53:01 51°14.313 2°55.269 16 244 16.5 101570 54
2011-10-10 06:53:06 51°14.325 2°55.258 12.6 23 16.6 101580 53
2011-10-10 06:53:12 51°14.34 2°55.244 20.4 254 16.6 101580 53
2011-10-10 06:53:17 51°14.352 2°55.233 17.7 24 16.5 101560 54
2011-10-10 06:53:23 51°14.366 2°55.22 18.1 236 16.5 101560 54
2011-10-10 06:53:28 51°14.379 2°55.209 15 24 16.5 101570 53
2011-10-10 06:53:34 51°14.393 2°55.194 8.2 247 16.5 101570 53
2011-10-10 06:53:38 51°14.403 2°55.186 4 25 16.5 101560 54
2011-10-10 06:53:42 51°14.413 2°55.177 7.7 245 16.5 101560 54
2011-10-10 06:53:47 51°14.425 2°55.166 17.4 25 16.5 101530 53
2011-10-10 06:53:52 51°14.438 2°55.152 8.3 243 16.5 101530 53
2011-10-10 06:53:58 51°14.453 2°55.138 16.8 23 16.5 101540 54
2011-10-10 06:54:02 51°14.463 2°55.127 15.6 241 16.5 101540 54
2011-10-10 06:54:07 51°14.475 2°55.114 6.6 26 16.5 101540 53
2011-10-10 06:54:12 51°14.489 2°55.101 14.6 238 16.5 101540 53
2011-10-10 06:54:17 51°14.502 2°55.088 3.5 27 16.5 101540 54
2011-10-10 06:54:22 51°14.516 2°55.076 10 245 16.5 101540 54
2011-10-10 06:54:26 51°14.527 2°55.065 4.8 246 16.5 101550 54
2011-10-10 06:54:31 51°14.541 2°55.052 18.5 243 16.5 101550 54
2011-10-10 06:54:36 51°14.554 2°55.037 18.5 24 16.4 101530 54
2011-10-10 06:54:41 51°14.567 2°55.022 17.4 243 16.4 101530 54
2011-10-10 06:54:46 51°14.58 2°55.007 20 25 16.4 101500 54
2011-10-10 06:54:50 51°14.59 2°54.995 22.2 239 16.4 101500 54
2011-10-10 06:54:55 51°14.603 2°54.981 9.5 25 16.4 101560 53
2011-10-10 06:55:02 51°14.622 2°54.961 4.4 244 16.4 101560 53
2011-10-10 06:55:06 51°14.633 2°54.951 8.6 25 16.5 101520 54
2011-10-10 06:55:11 51°14.645 2°54.938 4.2 239 16.5 101520 54
2011-10-10 06:55:16 51°14.658 2°54.924 9.9 24 16.4 101500 53
2011-10-10 06:55:21 51°14.671 2°54.911 17.7 245 16.4 101500 53
2011-10-10 06:55:27 51°14.685 2°54.896 2.2 27 16.4 101550 54
2011-10-10 06:55:33 51°14.699 2°54.88 3.5 243 16.4 101550 54
2011-10-10 06:55:38 51°14.712 2°54.867 24 25 16.4 101530 54
2011-10-10 06:55:42 51°14.721 2°54.856 16.5 246 16.4 101530 54
2011-10-10 06:55:47 51°14.733 2°54.842 3.3 246 16.4 101530 54
2011-10-10 06:55:52 51°14.745 2°54.827 3.3 239 16.4 101530 54
2011-10-10 06:55:57 51°14.755 2°54.809 17.7 21 16.4 101530 54
2011-10-10 06:56:02 51°14.764 2°54.791 4 38 16.4 101530 54
2011-10-10 06:56:06 51°14.771 2°54.775 6 24 16.4 101480 54
2011-10-10 06:56:12 51°14.779 2°54.752 13.3 36 16.4 101480 54
2011-10-10 06:56:18 51°14.785 2°54.727 18.9 24 16.4 101500 54
2011-10-10 06:56:22 51°14.788 2°54.71 11.1 316 16.4 101500 54
2011-10-10 06:56:27 51°14.791 2°54.688 20.9 25 16.4 101530 54
2011-10-10 06:56:32 51°14.792 2°54.666 24.7 321 16.4 101530 54
2011-10-10 06:56:38 51°14.791 2°54.639 17.6 318 16.4 101500 54
2011-10-10 06:56:42 51°14.789 2°54.621 22.5 324 16.4 101500 54
2011-10-10 06:56:47 51°14.786 2°54.6 11.3 322 16.4 101470 54
2011-10-10 06:56:52 51°14.781 2°54.579 11.7 331 16.4 101470 54
2011-10-10 06:56:57 51°14.774 2°54.559 12.4 334 16.4 101490 54
2011-10-10 06:57:02 51°14.766 2°54.541 21.6 336 16.4 101490 54
2011-10-10 06:57:07 51°14.757 2°54.524 21.4 335 16.4 101520 55
2011-10-10 06:57:12 51°14.746 2°54.509 9.4 338 16.4 101520 55
2011-10-10 06:57:16 51°14.738 2°54.495 21.6 340 16.4 101510 54
2011-10-10 06:57:21 51°14.726 2°54.482 28.8 341 16.4 101510 54
2011-10-10 06:57:26 51°14.715 2°54.466 11.6 339 16.4 101550 54
2011-10-10 06:57:31 51°14.705 2°54.45 11.2 337 16.4 101550 54
2011-10-10 06:57:36 51°14.695 2°54.433 11.6 337 16.4 101540 55
2011-10-10 06:57:41 51°14.684 2°54.415 10.8 340 16.4 101540 55
2011-10-10 06:57:46 51°14.674 2°54.399 5.7 339 16.4 101520 55
2011-10-10 06:57:50 51°14.665 2°54.386 27.2 339 16.4 101520 55
2011-10-10 06:57:55 51°14.653 2°54.37 22 341 16.4 101520 53
2011-10-10 06:58:00 51°14.642 2°54.354 11.2 339 16.4 101520 53
2011-10-10 06:58:05 51°14.631 2°54.337 11.2 336 16.4 101530 54
2011-10-10 06:58:10 51°14.619 2°54.321 12.8 339 16.4 101530 54
2011-10-10 06:58:14 51°14.61 2°54.308 6.2 339 16.3 101500 55
2011-10-10 06:58:19 51°14.599 2°54.292 6.1 340 16.3 101500 55
2011-10-10 06:58:24 51°14.587 2°54.276 21.4 341 16.3 101510 55
2011-10-10 06:58:29 51°14.576 2°54.26 8 340 16.3 101510 55
2011-10-10 06:58:34 51°14.565 2°54.243 6 339 16.3 101540 55
2011-10-10 06:58:39 51°14.553 2°54.228 20 340 16.3 101540 55
2011-10-10 06:58:44 51°14.543 2°54.211 5.5 337 16.3 101510 55
2011-10-10 06:58:49 51°14.531 2°54.195 12.9 338 16.3 101510 55
2011-10-10 06:58:54 51°14.521 2°54.179 13.6 340 16.3 101510 55
2011-10-10 06:58:59 51°14.511 2°54.162 19.3 335 16.3 101510 55
2011-10-10 06:59:04 51°14.5 2°54.144 10.4 336 16.3 101510 55
2011-10-10 06:59:10 51°14.488 2°54.123 9.5 337 16.3 101510 55
2011-10-10 06:59:14 51°14.48 2°54.108 24.4 335 16.3 101530 55
2011-10-10 06:59:19 51°14.47 2°54.09 12.5 339 16.3 101530 55
2011-10-10 06:59:26 51°14.455 2°54.066 23.1 339 16.2 101540 55
2011-10-10 06:59:30 51°14.446 2°54.051 7.2 337 16.2 101540 55
2011-10-10 06:59:34 51°14.438 2°54.037 5.4 335 16.2 101540 55
2011-10-10 06:59:38 51°14.429 2°54.022 22.3 336 16.2 101540 55
2011-10-10 06:59:44 51°14.417 2°54 9 337 16.2 101530 55
2011-10-10 06:59:50 51°14.405 2°53.977 6.2 341 16.2 101530 55
2011-10-10 06:59:54 51°14.396 2°53.962 5.7 336 16.2 101510 55
2011-10-10 06:59:59 51°14.386 2°53.943 3.3 335 16.2 101510 55
2011-10-10 07:00:04 51°14.376 2°53.924 10.7 336 16.2 101530 55
2011-10-10 07:00:10 51°14.363 2°53.901 20.1 335 16.2 101530 55
2011-10-10 07:00:14 51°14.355 2°53.885 7.4 334 16.2 101520 55
2011-10-10 07:00:19 51°14.344 2°53.867 5.6 337 16.2 101520 55
2011-10-10 07:00:24 51°14.334 2°53.847 19.7 337 16.2 101520 55
2011-10-10 07:00:30 51°14.322 2°53.825 19.3 335 16.2 101520 55
2011-10-10 07:00:34 51°14.313 2°53.811 6 332 16.2 101530 54
2011-10-10 07:00:40 51°14.3 2°53.79 5.7 337 16.2 101530 54
2011-10-10 07:00:45 51°14.289 2°53.773 19.8 335 16.2 101540 55
2011-10-10 07:00:50 51°14.279 2°53.754 20.4 335 16.2 101540 55
2011-10-10 07:00:55 51°14.268 2°53.735 6 338 16.2 101540 55
2011-10-10 07:01:00 51°14.258 2°53.717 12.4 339 16.2 101540 55
2011-10-10 07:01:05 51°14.247 2°53.7 5.4 339 16.2 101570 55
2011-10-10 07:01:10 51°14.236 2°53.681 4.9 335 16.2 101570 55
2011-10-10 07:01:14 51°14.227 2°53.667 4.6 339 16.2 101550 55
2011-10-10 07:01:19 51°14.217 2°53.648 20.4 337 16.2 101550 55
2011-10-10 07:01:24 51°14.206 2°53.629 5.6 336 16.2 101540 55
2011-10-10 07:01:30 51°14.194 2°53.606 20.5 335 16.2 101540 55
2011-10-10 07:01:34 51°14.186 2°53.59 22.3 335 16.1 101560 55
2011-10-10 07:01:38 51°14.178 2°53.574 4.1 336 16.1 101560 55
2011-10-10 07:01:44 51°14.165 2°53.55 10 339 16.1 101540 55
2011-10-10 07:01:50 51°14.154 2°53.527 10.4 335 16.1 101540 55
2011-10-10 07:01:54 51°14.146 2°53.51 10.2 337 16.1 101550 55
2011-10-10 07:01:59 51°14.137 2°53.49 6.3 337 16.1 101550 55
2011-10-10 07:02:04 51°14.127 2°53.471 6.5 337 16.1 101550 55
2011-10-10 07:02:10 51°14.115 2°53.447 28.2 335 16.1 101550 55
2011-10-10 07:02:14 51°14.107 2°53.432 11.8 334 16.1 101530 55
2011-10-10 07:02:19 51°14.098 2°53.412 4.9 335 16.1 101530 55
2011-10-10 07:02:24 51°14.088 2°53.393 2.6 333 16.1 101560 55
2011-10-10 07:02:30 51°14.076 2°53.37 5.3 333 16.1 101560 55
2011-10-10 07:02:34 51°14.068 2°53.354 17.3 335 16.1 101550 55
2011-10-10 07:02:39 51°14.059 2°53.334 25.9 337 16.1 101550 55
2011-10-10 07:02:44 51°14.049 2°53.315 11.4 335 16.1 101560 55
2011-10-10 07:02:50 51°14.038 2°53.291 26.5 337 16.1 101560 55
2011-10-10 07:02:54 51°14.03 2°53.275 3.8 335 16.1 101570 55
2011-10-10 07:02:59 51°14.02 2°53.255 6.2 332 16.1 101570 55
2011-10-10 07:03:04 51°14.011 2°53.235 8 333 16.1 101540 55
2011-10-10 07:03:09 51°14.002 2°53.214 24.6 334 16.1 101540 55
2011-10-10 07:03:14 51°13.992 2°53.194 8 336 16 101550 54
2011-10-10 07:03:19 51°13.982 2°53.174 3.3 334 16 101550 54
2011-10-10 07:03:24 51°13.973 2°53.155 4.9 337 16 101540 56
2011-10-10 07:03:30 51°13.961 2°53.134 8.5 339 16 101540 56
2011-10-10 07:03:35 51°13.952 2°53.115 5.1 334 15.9 101560 56
2011-10-10 07:03:40 51°13.942 2°53.097 17.1 337 15.9 101560 56
2011-10-10 07:03:45 51°13.934 2°53.076 9.6 336 15.9 101530 56
2011-10-10 07:03:50 51°13.924 2°53.058 5.9 333 15.9 101530 56
2011-10-10 07:03:54 51°13.917 2°53.042 5.9 336 15.8 101540 56
2011-10-10 07:03:59 51°13.908 2°53.022 10.8 335 15.8 101540 56
2011-10-10 07:04:04 51°13.898 2°53.002 6.8 336 15.8 101580 56
2011-10-10 07:04:10 51°13.887 2°52.979 5.6 334 15.8 101580 56
2011-10-10 07:04:14 51°13.88 2°52.962 24.9 334 15.7 101560 56
2011-10-10 07:04:20 51°13.869 2°52.941 22 335 15.7 101560 56
2011-10-10 07:04:25 51°13.86 2°52.921 4.4 334 15.7 101530 56
2011-10-10 07:04:30 51°13.851 2°52.903 5.2 338 15.7 101530 56
2011-10-10 07:04:35 51°13.842 2°52.883 6.1 338 15.7 101550 56
2011-10-10 07:04:40 51°13.832 2°52.863 2.9 338 15.7 101550 56
2011-10-10 07:04:45 51°13.824 2°52.844 6.1 339 15.6 101530 56
2011-10-10 07:04:50 51°13.814 2°52.824 5.3 331 15.6 101530 56
2011-10-10 07:04:54 51°13.808 2°52.807 24.1 331 15.6 101540 57
2011-10-10 07:04:59 51°13.799 2°52.787 3.8 333 15.6 101540 57
2011-10-10 07:05:04 51°13.79 2°52.766 5 333 15.6 101560 57
2011-10-10 07:05:10 51°13.78 2°52.741 5.6 334 15.6 101560 57
2011-10-10 07:05:14 51°13.773 2°52.724 13.4 330 15.6 101540 57
2011-10-10 07:05:19 51°13.765 2°52.704 6.1 334 15.6 101540 57
2011-10-10 07:05:24 51°13.757 2°52.682 11.1 333 15.6 101560 57
2011-10-10 07:05:29 51°13.749 2°52.662 6.9 335 15.6 101560 57
2011-10-10 07:05:34 51°13.74 2°52.641 6.9 334 15.6 101550 57
2011-10-10 07:05:39 51°13.731 2°52.62 11.1 332 15.6 101550 57
2011-10-10 07:05:44 51°13.723 2°52.599 6.8 335 15.5 101580 57
2011-10-10 07:05:50 51°13.713 2°52.573 20.2 331 15.5 101580 57
2011-10-10 07:05:54 51°13.706 2°52.557 5.2 334 15.5 101550 56
2011-10-10 07:06:00 51°13.695 2°52.532 9.7 335 15.5 101550 56
2011-10-10 07:06:06 51°13.685 2°52.508 18 333 15.5 101560 57
2011-10-10 07:06:10 51°13.678 2°52.491 7 336 15.5 101560 57
2011-10-10 07:06:15 51°13.67 2°52.469 10.7 336 15.5 101580 57
2011-10-10 07:06:20 51°13.661 2°52.447 6.7 333 15.5 101580 57
2011-10-10 07:06:26 51°13.65 2°52.424 24.1 334 15.5 101590 57
2011-10-10 07:06:31 51°13.641 2°52.404 3 334 15.5 101590 57
2011-10-10 07:06:36 51°13.633 2°52.384 13.5 336 15.5 101580 57
2011-10-10 07:06:41 51°13.624 2°52.365 10.4 333 15.5 101580 57
2011-10-10 07:06:46 51°13.617 2°52.345 4.4 333 15.5 101560 57
2011-10-10 07:06:51 51°13.608 2°52.325 16.5 333 15.5 101560 57
2011-10-10 07:06:56 51°13.601 2°52.305 24 329 15.5 101570 57
2011-10-10 07:07:01 51°13.592 2°52.284 11.9 333 15.5 101570 57
2011-10-10 07:07:06 51°13.584 2°52.263 10.5 330 15.5 101560 57
2011-10-10 07:07:10 51°13.577 2°52.247 5.6 332 15.5 101560 57
2011-10-10 07:07:15 51°13.568 2°52.226 8.1 333 15.5 101550 57
2011-10-10 07:07:20 51°13.56 2°52.205 6.2 333 15.5 101550 57
2011-10-10 07:07:25 51°13.551 2°52.182 7.6 333 15.5 101570 57
2011-10-10 07:07:30 51°13.543 2°52.161 16 336 15.5 101570 57
2011-10-10 07:07:34 51°13.536 2°52.144 3.3 337 15.4 101560 57
2011-10-10 07:07:39 51°13.527 2°52.123 5.7 332 15.4 101560 57
2011-10-10 07:07:44 51°13.519 2°52.101 5.8 333 15.4 101580 57
2011-10-10 07:07:49 51°13.51 2°52.081 6.3 332 15.4 101580 57
2011-10-10 07:07:54 51°13.502 2°52.059 10.6 333 15.4 101540 57
2011-10-10 07:07:59 51°13.494 2°52.038 1.9 334 15.4 101540 57
2011-10-10 07:08:04 51°13.486 2°52.016 28.5 332 15.4 101570 57
2011-10-10 07:08:10 51°13.476 2°51.989 5.4 334 15.4 101570 57
2011-10-10 07:08:14 51°13.47 2°51.971 6.5 335 15.4 101570 57
2011-10-10 07:08:19 51°13.462 2°51.949 5.9 335 15.4 101570 57
2011-10-10 07:08:25 51°13.452 2°51.922 2.9 335 15.4 101570 58
2011-10-10 07:08:30 51°13.443 2°51.9 22.7 333 15.4 101570 58
2011-10-10 07:08:34 51°13.437 2°51.884 9.8 332 15.4 101580 56
2011-10-10 07:08:38 51°13.431 2°51.866 16.2 336 15.4 101580 56
2011-10-10 07:08:44 51°13.421 2°51.84 10.1 332 15.4 101570 57
2011-10-10 07:08:50 51°13.412 2°51.814 7.1 334 15.4 101570 57
2011-10-10 07:08:54 51°13.405 2°51.797 25.3 331 15.4 101580 57
2011-10-10 07:08:59 51°13.396 2°51.775 10.6 331 15.4 101580 57
2011-10-10 07:09:04 51°13.388 2°51.754 6.5 333 15.4 101560 58
2011-10-10 07:09:10 51°13.377 2°51.728 9.4 334 15.4 101560 58
2011-10-10 07:09:15 51°13.369 2°51.708 17.5 332 15.4 101560 58
2011-10-10 07:09:20 51°13.361 2°51.687 6.7 335 15.4 101560 58
2011-10-10 07:09:25 51°13.352 2°51.666 6.5 334 15.4 101570 57
2011-10-10 07:09:30 51°13.343 2°51.646 5 332 15.4 101570 57
2011-10-10 07:09:34 51°13.337 2°51.628 9.8 331 15.4 101600 58
2011-10-10 07:09:39 51°13.328 2°51.607 5.1 332 15.4 101600 58
2011-10-10 07:09:44 51°13.319 2°51.586 5.1 333 15.4 101560 58
2011-10-10 07:09:49 51°13.311 2°51.564 2.6 332 15.4 101560 58
2011-10-10 07:09:54 51°13.302 2°51.543 6.8 334 15.4 101580 58
2011-10-10 07:09:59 51°13.294 2°51.522 6.5 331 15.4 101580 58
2011-10-10 07:10:04 51°13.285 2°51.5 17.4 332 15.4 101580 58
2011-10-10 07:10:09 51°13.277 2°51.478 4.4 332 15.4 101580 58
2011-10-10 07:10:14 51°13.269 2°51.456 8.9 330 15.4 101560 58
2011-10-10 07:10:19 51°13.261 2°51.434 7.3 332 15.4 101560 58
2011-10-10 07:10:24 51°13.253 2°51.411 10.5 331 15.4 101560 57
2011-10-10 07:10:30 51°13.243 2°51.385 19.6 333 15.4 101560 57
2011-10-10 07:10:34 51°13.236 2°51.368 10.3 331 15.4 101580 58
2011-10-10 07:10:39 51°13.228 2°51.346 24.1 329 15.4 101580 58
2011-10-10 07:10:44 51°13.219 2°51.325 5.3 333 15.4 101560 58
2011-10-10 07:10:49 51°13.211 2°51.303 2.4 334 15.4 101560 58
2011-10-10 07:10:54 51°13.202 2°51.283 4.4 334 15.4 101590 58
2011-10-10 07:10:59 51°13.194 2°51.262 7.6 334 15.4 101590 58
2011-10-10 07:11:04 51°13.185 2°51.242 13.3 331 15.4 101560 58
2011-10-10 07:11:10 51°13.175 2°51.216 10.9 333 15.4 101560 58
2011-10-10 07:11:14 51°13.168 2°51.199 2.5 333 15.3 101560 56
2011-10-10 07:11:19 51°13.16 2°51.177 11 332 15.3 101560 56
2011-10-10 07:11:24 51°13.152 2°51.156 25.5 334 15.3 101540 58
2011-10-10 07:11:30 51°13.142 2°51.13 3.3 331 15.3 101540 58
2011-10-10 07:11:34 51°13.135 2°51.112 23.2 329 15.3 101570 58
2011-10-10 07:11:39 51°13.126 2°51.091 24.4 332 15.3 101570 58
2011-10-10 07:11:45 51°13.116 2°51.066 3.1 333 15.3 101550 56
2011-10-10 07:11:50 51°13.108 2°51.045 5.6 331 15.3 101550 56
2011-10-10 07:11:54 51°13.101 2°51.028 6 331 15.3 101550 58
2011-10-10 07:11:59 51°13.093 2°51.007 2.8 339 15.3 101550 58
2011-10-10 07:12:04 51°13.085 2°50.986 5.6 334 15.3 101550 58
2011-10-10 07:12:09 51°13.076 2°50.965 5.4 333 15.3 101550 58
2011-10-10 07:12:14 51°13.068 2°50.943 25.4 332 15.3 101570 58
2011-10-10 07:12:19 51°13.06 2°50.922 25 334 15.3 101570 58
2011-10-10 07:12:24 51°13.051 2°50.9 5.8 335 15.3 101580 58
2011-10-10 07:12:30 51°13.04 2°50.875 21.4 332 15.3 101580 58
2011-10-10 07:12:34 51°13.033 2°50.858 7.5 332 15.3 101570 58
2011-10-10 07:12:39 51°13.025 2°50.837 18.1 334 15.3 101570 58
2011-10-10 07:12:44 51°13.016 2°50.816 5.4 332 15.3 101550 58
2011-10-10 07:12:50 51°13.007 2°50.79 11.7 329 15.3 101550 58
2011-10-10 07:12:54 51°12.999 2°50.774 7 333 15.3 101550 58
2011-10-10 07:13:00 51°12.989 2°50.748 6.5 335 15.3 101550 58
2011-10-10 07:13:05 51°12.98 2°50.726 6.6 334 15.3 101570 58
2011-10-10 07:13:10 51°12.972 2°50.705 4.7 339 15.3 101570 58
2011-10-10 07:13:14 51°12.964 2°50.687 2.5 334 15.3 101560 58
2011-10-10 07:13:18 51°12.957 2°50.67 21.8 329 15.3 101560 58
2011-10-10 07:13:24 51°12.946 2°50.645 5.3 331 15.3 101590 58
2011-10-10 07:13:30 51°12.936 2°50.621 7.6 333 15.3 101590 58
2011-10-10 07:13:34 51°12.929 2°50.604 20.4 335 15.3 101560 58
2011-10-10 07:13:39 51°12.921 2°50.583 25.7 334 15.3 101560 58
2011-10-10 07:13:44 51°12.912 2°50.562 7.7 334 15.3 101540 58
2011-10-10 07:13:49 51°12.902 2°50.542 6.9 336 15.3 101540 58
2011-10-10 07:13:54 51°12.894 2°50.52 20.1 334 15.3 101560 56
2011-10-10 07:13:59 51°12.885 2°50.499 9.1 333 15.3 101560 56
2011-10-10 07:14:04 51°12.876 2°50.477 4.2 331 15.2 101560 58
2011-10-10 07:14:09 51°12.868 2°50.456 21.1 334 15.2 101560 58
2011-10-10 07:14:14 51°12.86 2°50.435 15.4 333 15.2 101560 58
2011-10-10 07:14:20 51°12.85 2°50.409 7.7 332 15.2 101560 58
2011-10-10 07:14:24 51°12.843 2°50.391 10.7 334 15.3 101570 58
2011-10-10 07:14:29 51°12.835 2°50.371 14.5 335 15.3 101570 58
2011-10-10 07:14:34 51°12.827 2°50.349 24.3 335 15.3 101560 58
2011-10-10 07:14:40 51°12.817 2°50.324 7.1 330 15.3 101560 58
2011-10-10 07:14:45 51°12.809 2°50.302 16.6 332 15.3 101560 58
2011-10-10 07:14:50 51°12.8 2°50.28 7 331 15.3 101560 58
2011-10-10 07:14:54 51°12.794 2°50.263 5.2 332 15.3 101560 58
2011-10-10 07:14:59 51°12.785 2°50.241 7.4 334 15.3 101560 58
2011-10-10 07:15:04 51°12.776 2°50.22 17.9 331 15.3 101570 58
2011-10-10 07:15:09 51°12.768 2°50.199 8.1 335 15.3 101570 58
2011-10-10 07:15:14 51°12.759 2°50.178 24.2 332 15.3 101570 59
2011-10-10 07:15:19 51°12.751 2°50.155 4.7 335 15.3 101570 59
2011-10-10 07:15:24 51°12.742 2°50.134 5.3 335 15.3 101540 58
2011-10-10 07:15:29 51°12.734 2°50.113 9.6 335 15.3 101540 58
2011-10-10 07:15:34 51°12.725 2°50.092 5.4 333 15.3 101570 58
2011-10-10 07:15:40 51°12.714 2°50.067 5.9 334 15.3 101570 58
2011-10-10 07:15:45 51°12.706 2°50.047 9.2 333 15.3 101570 58
2011-10-10 07:15:50 51°12.698 2°50.025 10.9 335 15.3 101570 58
2011-10-10 07:15:54 51°12.691 2°50.008 10.7 335 15.3 101550 58
2011-10-10 07:15:59 51°12.682 2°49.987 5.4 336 15.3 101550 58
2011-10-10 07:16:04 51°12.673 2°49.965 11.5 335 15.3 101590 58
2011-10-10 07:16:09 51°12.665 2°49.944 8.9 333 15.3 101590 58
2011-10-10 07:16:14 51°12.656 2°49.922 5.6 335 15.3 101570 58
2011-10-10 07:16:19 51°12.647 2°49.9 6.6 333 15.3 101570 58
2011-10-10 07:16:24 51°12.638 2°49.878 21.4 333 15.3 101580 58
2011-10-10 07:16:29 51°12.629 2°49.856 4.4 333 15.3 101580 58
2011-10-10 07:16:34 51°12.62 2°49.835 5.4 337 15.3 101560 57
2011-10-10 07:16:39 51°12.612 2°49.813 10.6 337 15.3 101560 57
2011-10-10 07:16:44 51°12.603 2°49.792 22.4 334 15.3 101580 58
2011-10-10 07:16:50 51°12.593 2°49.767 6.8 335 15.3 101580 58
2011-10-10 07:16:54 51°12.587 2°49.749 6.9 329 15.3 101570 58
2011-10-10 07:16:59 51°12.578 2°49.728 5.6 332 15.3 101570 58
2011-10-10 07:17:04 51°12.57 2°49.707 11.4 333 15.3 101560 57
2011-10-10 07:17:10 51°12.56 2°49.682 8 335 15.3 101560 57
2011-10-10 07:17:14 51°12.553 2°49.665 4.1 335 15.3 101560 58
2011-10-10 07:17:19 51°12.545 2°49.644 16.1 331 15.3 101560 58
2011-10-10 07:17:24 51°12.537 2°49.622 6.3 331 15.3 101550 58
2011-10-10 07:17:30 51°12.527 2°49.595 5.7 333 15.3 101550 58
2011-10-10 07:17:34 51°12.52 2°49.577 25.5 333 15.3 101550 58
2011-10-10 07:17:39 51°12.512 2°49.555 14.8 333 15.3 101550 58
2011-10-10 07:17:45 51°12.503 2°49.527 6.6 332 15.3 101570 58
2011-10-10 07:17:50 51°12.495 2°49.504 28.9 333 15.3 101570 58
2011-10-10 07:17:54 51°12.488 2°49.486 11 334 15.3 101550 58
2011-10-10 07:17:59 51°12.48 2°49.464 11.8 334 15.3 101550 58
2011-10-10 07:18:04 51°12.472 2°49.442 9.4 331 15.3 101550 59
2011-10-10 07:18:10 51°12.462 2°49.416 11.7 333 15.3 101550 59
2011-10-10 07:18:14 51°12.456 2°49.398 25.6 334 15.3 101560 58
2011-10-10 07:18:19 51°12.447 2°49.375 7.3 333 15.3 101560 58
2011-10-10 07:18:24 51°12.439 2°49.353 7.5 331 15.3 101540 58
2011-10-10 07:18:29 51°12.432 2°49.331 22 332 15.3 101540 58
2011-10-10 07:18:34 51°12.424 2°49.308 8.6 331 15.3 101560 58
2011-10-10 07:18:39 51°12.416 2°49.286 22.1 332 15.3 101560 58
2011-10-10 07:18:44 51°12.408 2°49.263 22.6 330 15.3 101530 58
2011-10-10 07:18:49 51°12.401 2°49.24 6.5 336 15.3 101530 58
2011-10-10 07:18:54 51°12.393 2°49.218 11.7 332 15.3 101560 58
2011-10-10 07:18:59 51°12.386 2°49.194 12 329 15.3 101560 58
2011-10-10 07:19:04 51°12.378 2°49.172 24.2 333 15.3 101540 58
2011-10-10 07:19:10 51°12.369 2°49.144 11 332 15.3 101540 58
2011-10-10 07:19:14 51°12.364 2°49.125 25.7 331 15.3 101570 57
2011-10-10 07:19:19 51°12.357 2°49.102 12.1 330 15.3 101570 57
2011-10-10 07:19:24 51°12.349 2°49.079 11.7 331 15.3 101580 58
2011-10-10 07:19:30 51°12.34 2°49.051 4.4 333 15.3 101580 58
2011-10-10 07:19:34 51°12.334 2°49.033 7.4 332 15.2 101540 58
2011-10-10 07:19:39 51°12.327 2°49.01 6.3 331 15.2 101540 58
2011-10-10 07:19:44 51°12.319 2°48.987 5.5 330 15.2 101570 57
2011-10-10 07:19:50 51°12.31 2°48.96 11.4 332 15.2 101570 57
2011-10-10 07:19:54 51°12.305 2°48.941 8.4 333 15.2 101550 58
2011-10-10 07:19:59 51°12.298 2°48.918 6.1 331 15.2 101550 58
2011-10-10 07:20:04 51°12.29 2°48.894 5.5 330 15.2 101550 58
2011-10-10 07:20:10 51°12.282 2°48.866 6.9 333 15.2 101550 58
2011-10-10 07:20:14 51°12.276 2°48.848 26.6 331 15.2 101550 58
2011-10-10 07:20:19 51°12.269 2°48.824 6.8 333 15.2 101550 58
2011-10-10 07:20:24 51°12.262 2°48.801 7.1 334 15.2 101560 58
2011-10-10 07:20:29 51°12.255 2°48.778 4.7 333 15.2 101560 58
2011-10-10 07:20:34 51°12.247 2°48.756 22.6 333 15.2 101540 58
2011-10-10 07:20:39 51°12.24 2°48.732 5.9 333 15.2 101540 58
2011-10-10 07:20:44 51°12.233 2°48.709 20.9 334 15.2 101570 58
2011-10-10 07:20:49 51°12.226 2°48.686 12.7 335 15.2 101570 58
2011-10-10 07:20:54 51°12.219 2°48.663 23.9 334 15.2 101560 58
2011-10-10 07:20:59 51°12.212 2°48.641 10.8 330 15.2 101560 58
2011-10-10 07:21:04 51°12.204 2°48.618 11.2 333 15.2 101560 58
2011-10-10 07:21:10 51°12.196 2°48.59 11 332 15.2 101560 58
2011-10-10 07:21:14 51°12.191 2°48.572 5.6 330 15.2 101560 58
2011-10-10 07:21:19 51°12.184 2°48.549 9.7 333 15.2 101560 58
2011-10-10 07:21:24 51°12.177 2°48.526 10.8 332 15.2 101540 58
2011-10-10 07:21:30 51°12.168 2°48.498 20.9 334 15.2 101540 58
2011-10-10 07:21:34 51°12.163 2°48.48 23.9 332 15.2 101550 58
2011-10-10 07:21:39 51°12.156 2°48.458 5 332 15.2 101550 58
2011-10-10 07:21:44 51°12.149 2°48.435 4.9 335 15.2 101560 58
2011-10-10 07:21:50 51°12.141 2°48.407 5.4 331 15.2 101560 58
2011-10-10 07:21:54 51°12.135 2°48.389 6.2 332 15.2 101550 57
2011-10-10 07:21:59 51°12.129 2°48.366 12.3 331 15.2 101550 57
2011-10-10 07:22:04 51°12.121 2°48.343 11.3 330 15.2 101570 58
2011-10-10 07:22:10 51°12.113 2°48.316 25.6 331 15.2 101570 58
2011-10-10 07:22:14 51°12.108 2°48.298 11.9 333 15.2 101550 58
2011-10-10 07:22:19 51°12.101 2°48.276 23.3 333 15.2 101550 58
2011-10-10 07:22:24 51°12.094 2°48.253 5.6 332 15.2 101510 57
2011-10-10 07:22:30 51°12.086 2°48.225 24.6 332 15.2 101510 57
2011-10-10 07:22:34 51°12.081 2°48.207 8.2 330 15.2 101540 58
2011-10-10 07:22:39 51°12.074 2°48.184 22.8 332 15.2 101540 58
2011-10-10 07:22:44 51°12.067 2°48.162 12.6 334 15.2 101550 58
2011-10-10 07:22:49 51°12.061 2°48.139 6.6 333 15.2 101550 58
2011-10-10 07:22:54 51°12.053 2°48.117 7.5 331 15.2 101560 58
2011-10-10 07:22:59 51°12.046 2°48.094 7.3 332 15.2 101560 58
2011-10-10 07:23:04 51°12.039 2°48.071 21.1 334 15.2 101540 58
2011-10-10 07:23:09 51°12.032 2°48.048 4.4 333 15.2 101540 58
2011-10-10 07:23:14 51°12.024 2°48.025 16.7 332 15.2 101550 58
2011-10-10 07:23:19 51°12.017 2°48.002 11.4 331 15.2 101550 58
2011-10-10 07:23:24 51°12.01 2°47.979 5.9 333 15.2 101560 58
2011-10-10 07:23:30 51°12.002 2°47.952 5.8 332 15.2 101560 58
2011-10-10 07:23:34 51°11.997 2°47.933 7.5 330 15.2 101570 58
2011-10-10 07:23:39 51°11.99 2°47.91 9.1 333 15.2 101570 58
2011-10-10 07:23:44 51°11.983 2°47.887 9.1 331 15.2 101560 58
2011-10-10 07:23:50 51°11.976 2°47.859 24.4 331 15.2 101560 58
2011-10-10 07:23:54 51°11.97 2°47.84 5.1 329 15.2 101540 58
2011-10-10 07:23:59 51°11.963 2°47.816 5.5 330 15.2 101540 58
2011-10-10 07:24:04 51°11.957 2°47.793 11 330 15.2 101550 58
2011-10-10 07:24:10 51°11.949 2°47.764 9.5 330 15.2 101550 58
2011-10-10 07:24:14 51°11.943 2°47.745 5.6 332 15.2 101570 58
2011-10-10 07:24:19 51°11.937 2°47.722 6.4 332 15.2 101570 58
2011-10-10 07:24:24 51°11.93 2°47.698 2 330 15.2 101560 58
2011-10-10 07:24:30 51°11.923 2°47.67 6.5 331 15.2 101560 58
2011-10-10 07:24:34 51°11.918 2°47.65 6.1 331 15.2 101540 57
2011-10-10 07:24:39 51°11.911 2°47.627 25.1 329 15.2 101540 57
2011-10-10 07:24:44 51°11.904 2°47.603 6.4 333 15.2 101550 58
2011-10-10 07:24:50 51°11.896 2°47.575 12.1 335 15.2 101550 58
2011-10-10 07:24:54 51°11.891 2°47.556 6.6 334 15.2 101530 58
2011-10-10 07:24:59 51°11.884 2°47.533 6.7 331 15.2 101530 58
2011-10-10 07:25:04 51°11.876 2°47.511 6.9 331 15.2 101530 57
2011-10-10 07:25:09 51°11.869 2°47.488 5 333 15.2 101530 57
2011-10-10 07:25:14 51°11.862 2°47.466 10 332 15.2 101530 58
2011-10-10 07:25:19 51°11.854 2°47.443 24.4 334 15.2 101530 58
2011-10-10 07:25:24 51°11.847 2°47.42 7.2 330 15.2 101560 58
2011-10-10 07:25:30 51°11.838 2°47.393 6.4 332 15.2 101560 58
2011-10-10 07:25:35 51°11.831 2°47.37 3.3 334 15.3 101570 58
2011-10-10 07:25:40 51°11.824 2°47.348 10.8 332 15.3 101570 58
2011-10-10 07:25:45 51°11.817 2°47.325 21.9 331 15.3 101570 58
2011-10-10 07:25:50 51°11.81 2°47.303 5.7 333 15.3 101570 58
2011-10-10 07:25:54 51°11.804 2°47.285 9.4 334 15.3 101550 58
2011-10-10 07:25:59 51°11.796 2°47.264 7.2 332 15.3 101550 58
2011-10-10 07:26:04 51°11.789 2°47.241 1.9 334 15.3 101550 58
2011-10-10 07:26:10 51°11.781 2°47.214 5.5 331 15.3 101550 58
2011-10-10 07:26:14 51°11.775 2°47.196 7.8 333 15.3 101540 58
2011-10-10 07:26:19 51°11.768 2°47.174 2.6 330 15.3 101540 58
2011-10-10 07:26:24 51°11.76 2°47.151 2.2 333 15.3 101560 58
2011-10-10 07:26:30 51°11.752 2°47.125 6 333 15.3 101560 58
2011-10-10 07:26:34 51°11.747 2°47.107 7.5 333 15.3 101530 58
2011-10-10 07:26:38 51°11.741 2°47.09 8.2 329 15.3 101530 58
2011-10-10 07:26:44 51°11.733 2°47.062 23.3 332 15.3 101550 58
2011-10-10 07:26:50 51°11.724 2°47.035 6.4 334 15.3 101550 58
2011-10-10 07:26:54 51°11.719 2°47.017 6.3 331 15.3 101530 58
2011-10-10 07:26:59 51°11.712 2°46.994 20.6 330 15.3 101530 58
2011-10-10 07:27:04 51°11.705 2°46.971 1.9 331 15.3 101560 58
2011-10-10 07:27:10 51°11.697 2°46.945 6 330 15.3 101560 58
2011-10-10 07:27:14 51°11.691 2°46.927 2.5 330 15.3 101560 57
2011-10-10 07:27:19 51°11.684 2°46.905 11.1 333 15.3 101560 57
2011-10-10 07:27:24 51°11.678 2°46.882 4.4 331 15.4 101570 58
2011-10-10 07:27:29 51°11.671 2°46.86 12 333 15.4 101570 58
2011-10-10 07:27:34 51°11.664 2°46.837 4.6 333 15.4 101550 58
2011-10-10 07:27:39 51°11.658 2°46.814 24.6 331 15.4 101550 58
2011-10-10 07:27:44 51°11.652 2°46.79 5.4 333 15.3 101560 56
2011-10-10 07:27:49 51°11.645 2°46.767 3.3 331 15.3 101560 56
2011-10-10 07:27:54 51°11.639 2°46.743 5.1 331 15.3 101560 58
2011-10-10 07:27:59 51°11.632 2°46.721 5.5 332 15.3 101560 58
2011-10-10 07:28:04 51°11.625 2°46.697 3.2 331 15.3 101540 58
2011-10-10 07:28:09 51°11.619 2°46.674 5.2 332 15.3 101540 58
2011-10-10 07:28:14 51°11.612 2°46.65 1.7 332 15.3 101560 58
2011-10-10 07:28:19 51°11.606 2°46.626 9.7 329 15.3 101560 58
2011-10-10 07:28:24 51°11.599 2°46.604 6 331 15.3 101560 58
2011-10-10 07:28:30 51°11.591 2°46.575 6.4 331 15.3 101560 58
2011-10-10 07:28:34 51°11.585 2°46.557 1.8 332 15.3 101570 58
2011-10-10 07:28:39 51°11.578 2°46.534 5 329 15.3 101570 58
2011-10-10 07:28:44 51°11.571 2°46.511 5.2 331 15.3 101570 58
2011-10-10 07:28:50 51°11.563 2°46.483 10.5 332 15.3 101570 58
2011-10-10 07:28:54 51°11.557 2°46.465 5.4 330 15.3 101580 58
2011-10-10 07:28:59 51°11.55 2°46.442 20.1 332 15.3 101580 58
2011-10-10 07:29:04 51°11.542 2°46.419 5.3 333 15.3 101560 58
2011-10-10 07:29:10 51°11.534 2°46.392 11.3 333 15.3 101560 58
2011-10-10 07:29:14 51°11.528 2°46.374 2.6 332 15.3 101570 58
2011-10-10 07:29:19 51°11.521 2°46.351 3.3 332 15.3 101570 58
2011-10-10 07:29:24 51°11.514 2°46.327 10.6 330 15.3 101560 58
2011-10-10 07:29:29 51°11.508 2°46.305 5.4 332 15.3 101560 58
2011-10-10 07:29:34 51°11.501 2°46.282 2.1 330 15.3 101550 58
2011-10-10 07:29:40 51°11.493 2°46.255 2 330 15.3 101550 58
2011-10-10 07:29:45 51°11.487 2°46.232 5.8 331 15.3 101550 58
2011-10-10 07:29:50 51°11.481 2°46.21 4.4 330 15.3 101550 58
2011-10-10 07:29:54 51°11.476 2°46.192 22.4 331 15.3 101560 57
2011-10-10 07:29:59 51°11.471 2°46.169 5.7 329 15.3 101560 57
2011-10-10 07:30:04 51°11.465 2°46.147 23.4 331 15.3 101560 58
2011-10-10 07:30:09 51°11.46 2°46.124 5.6 331 15.3 101560 58
2011-10-10 07:30:14 51°11.454 2°46.101 6.9 329 15.3 101530 58
2011-10-10 07:30:19 51°11.449 2°46.078 24.6 328 15.3 101530 58
2011-10-10 07:30:24 51°11.443 2°46.054 5.4 330 15.2 101590 57
2011-10-10 07:30:29 51°11.437 2°46.03 9.6 329 15.2 101590 57
2011-10-10 07:30:34 51°11.432 2°46.006 4.7 327 15.2 101580 58
2011-10-10 07:30:39 51°11.427 2°45.982 7.3 332 15.2 101580 58
2011-10-10 07:30:44 51°11.421 2°45.959 0.9 330 15.2 101570 58
2011-10-10 07:30:49 51°11.415 2°45.935 1.9 330 15.2 101570 58
2011-10-10 07:30:54 51°11.409 2°45.911 25.9 332 15.2 101570 58
2011-10-10 07:30:59 51°11.404 2°45.887 23.5 329 15.2 101570 58
2011-10-10 07:31:04 51°11.398 2°45.864 7 327 15.2 101560 58
2011-10-10 07:31:10 51°11.391 2°45.835 5.5 331 15.2 101560 58
2011-10-10 07:31:14 51°11.387 2°45.816 5.3 331 15.2 101580 58
2011-10-10 07:31:19 51°11.381 2°45.792 9.5 331 15.2 101580 58
2011-10-10 07:31:24 51°11.376 2°45.768 7 332 15.2 101570 58
2011-10-10 07:31:30 51°11.369 2°45.74 3.9 331 15.2 101570 58
2011-10-10 07:31:34 51°11.364 2°45.721 26.1 330 15.2 101590 58
2011-10-10 07:31:39 51°11.358 2°45.697 5.6 330 15.2 101590 58
2011-10-10 07:31:44 51°11.352 2°45.674 1.8 330 15.2 101570 58
2011-10-10 07:31:49 51°11.346 2°45.65 6 330 15.2 101570 58
2011-10-10 07:31:54 51°11.341 2°45.626 11.7 331 15.2 101570 58
2011-10-10 07:31:59 51°11.335 2°45.602 3.8 332 15.2 101570 58
2011-10-10 07:32:04 51°11.329 2°45.579 28.4 331 15.2 101570 58
2011-10-10 07:32:10 51°11.322 2°45.552 25.4 329 15.2 101570 58
2011-10-10 07:32:14 51°11.318 2°45.533 6 331 15.2 101580 58
2011-10-10 07:32:19 51°11.311 2°45.51 9.6 330 15.2 101580 58
2011-10-10 07:32:24 51°11.305 2°45.487 3.1 332 15.2 101540 58
2011-10-10 07:32:30 51°11.298 2°45.46 2.5 328 15.2 101540 58
2011-10-10 07:32:35 51°11.292 2°45.438 9.1 331 15.2 101570 57
2011-10-10 07:32:40 51°11.286 2°45.414 1.3 333 15.2 101570 57
2011-10-10 07:32:45 51°11.28 2°45.39 1.5 331 15.2 101600 59
2011-10-10 07:32:50 51°11.273 2°45.368 5.3 332 15.2 101600 59
2011-10-10 07:32:54 51°11.268 2°45.349 6.3 329 15.2 101580 58
2011-10-10 07:32:59 51°11.262 2°45.326 10.8 331 15.2 101580 58
2011-10-10 07:33:04 51°11.255 2°45.302 11.9 330 15.2 101570 57
2011-10-10 07:33:09 51°11.248 2°45.279 5.3 332 15.2 101570 57
2011-10-10 07:33:14 51°11.242 2°45.256 2.6 329 15.2 101570 58
2011-10-10 07:33:19 51°11.235 2°45.233 12.3 331 15.2 101570 58
2011-10-10 07:33:24 51°11.229 2°45.21 3 330 15.2 101570 58
2011-10-10 07:33:30 51°11.222 2°45.183 2.8 330 15.2 101570 58
2011-10-10 07:33:34 51°11.217 2°45.165 10.4 332 15.2 101560 58
2011-10-10 07:33:39 51°11.211 2°45.142 24.3 331 15.2 101560 58
2011-10-10 07:33:44 51°11.205 2°45.118 25.6 330 15.2 101580 58
2011-10-10 07:33:49 51°11.199 2°45.095 4 331 15.2 101580 58
2011-10-10 07:33:54 51°11.194 2°45.072 4.7 330 15.2 101590 58
2011-10-10 07:33:59 51°11.188 2°45.048 4.1 331 15.2 101590 58
2011-10-10 07:34:04 51°11.182 2°45.024 2.6 333 15.2 101600 58
2011-10-10 07:34:10 51°11.175 2°44.996 4.4 330 15.2 101600 58
2011-10-10 07:34:14 51°11.17 2°44.977 24.2 332 15.2 101580 58
2011-10-10 07:34:20 51°11.164 2°44.949 1.3 328 15.2 101580 58
2011-10-10 07:34:25 51°11.159 2°44.926 9.2 331 15.2 101590 58
2011-10-10 07:34:30 51°11.155 2°44.902 0.8 328 15.2 101590 58
2011-10-10 07:34:34 51°11.151 2°44.883 23.9 328 15.2 101580 59
2011-10-10 07:34:39 51°11.147 2°44.858 6.7 330 15.2 101580 59
2011-10-10 07:34:44 51°11.143 2°44.834 5.8 327 15.2 101580 59
2011-10-10 07:34:49 51°11.139 2°44.81 9.9 327 15.2 101580 59
2011-10-10 07:34:54 51°11.135 2°44.785 5.4 327 15.2 101580 58
2011-10-10 07:34:59 51°11.132 2°44.761 19.5 328 15.2 101580 58
2011-10-10 07:35:04 51°11.129 2°44.737 1.3 324 15.2 101570 58
2011-10-10 07:35:10 51°11.126 2°44.708 7.5 328 15.2 101570 58
2011-10-10 07:35:14 51°11.125 2°44.688 1.4 324 15.2 101560 57
2011-10-10 07:35:19 51°11.122 2°44.664 6.6 329 15.2 101560 57
2011-10-10 07:35:24 51°11.12 2°44.639 0.7 326 15.2 101560 59
2011-10-10 07:35:30 51°11.117 2°44.61 15.4 325 15.2 101560 59
2011-10-10 07:35:34 51°11.115 2°44.59 1.1 325 15.2 101550 59
2011-10-10 07:35:39 51°11.112 2°44.566 5.9 327 15.2 101550 59
2011-10-10 07:35:45 51°11.109 2°44.539 19.3 328 15.2 101550 57
2011-10-10 07:35:50 51°11.106 2°44.515 3.3 328 15.2 101550 57
2011-10-10 07:35:54 51°11.103 2°44.496 5.3 325 15.2 101560 59
2011-10-10 07:35:59 51°11.101 2°44.472 2.4 327 15.2 101560 59
2011-10-10 07:36:04 51°11.098 2°44.448 3.3 325 15.2 101560 59
2011-10-10 07:36:10 51°11.094 2°44.419 3.3 326 15.2 101560 59
2011-10-10 07:36:14 51°11.092 2°44.399 4.4 327 15.2 101590 59
2011-10-10 07:36:19 51°11.089 2°44.374 5.6 326 15.2 101590 59
2011-10-10 07:36:24 51°11.087 2°44.349 1.3 326 15.2 101560 59
2011-10-10 07:36:30 51°11.083 2°44.32 1.4 325 15.2 101560 59
2011-10-10 07:36:34 51°11.081 2°44.3 4 326 15.2 101560 58
2011-10-10 07:36:39 51°11.079 2°44.276 15.1 326 15.2 101560 58
2011-10-10 07:36:44 51°11.076 2°44.251 1.8 328 15.2 101540 59
2011-10-10 07:36:49 51°11.073 2°44.226 11.4 327 15.2 101540 59
2011-10-10 07:36:54 51°11.07 2°44.202 4.3 325 15.2 101550 59
2011-10-10 07:36:58 51°11.068 2°44.183 1.3 322 15.2 101550 59
2011-10-10 07:37:04 51°11.064 2°44.154 3.4 325 15.1 101570 59
2011-10-10 07:37:09 51°11.061 2°44.13 6.1 325 15.1 101570 59
2011-10-10 07:37:14 51°11.058 2°44.106 12 330 15.2 101540 58
2011-10-10 07:37:19 51°11.054 2°44.082 5.3 325 15.2 101540 58
2011-10-10 07:37:24 51°11.051 2°44.058 5.9 327 15.2 101570 59
2011-10-10 07:37:29 51°11.047 2°44.034 7.6 328 15.2 101570 59
2011-10-10 07:37:34 51°11.044 2°44.01 1.4 330 15.2 101570 58
2011-10-10 07:37:39 51°11.04 2°43.986 2.6 323 15.2 101570 58
2011-10-10 07:37:44 51°11.036 2°43.962 4.1 326 15.2 101540 59
2011-10-10 07:37:50 51°11.032 2°43.933 11.2 330 15.2 101540 59
2011-10-10 07:37:54 51°11.029 2°43.914 6.3 327 15.2 101550 59
2011-10-10 07:37:59 51°11.025 2°43.891 9.1 330 15.2 101550 59
2011-10-10 07:38:04 51°11.022 2°43.866 5.7 326 15.2 101560 59
2011-10-10 07:38:10 51°11.017 2°43.837 3.3 325 15.2 101560 59
2011-10-10 07:38:14 51°11.014 2°43.818 5.4 330 15.2 101540 58
2011-10-10 07:38:19 51°11.011 2°43.793 3.5 326 15.2 101540 58
2011-10-10 07:38:24 51°11.009 2°43.768 8.1 327 15.2 101540 57
2011-10-10 07:38:30 51°11.007 2°43.738 5.5 323 15.2 101540 57
2011-10-10 07:38:34 51°11.006 2°43.718 3.8 321 15.2 101550 58
2011-10-10 07:38:39 51°11.005 2°43.694 5.9 323 15.2 101550 58
2011-10-10 07:38:44 51°11.005 2°43.669 3.3 324 15.2 101580 59
2011-10-10 07:38:49 51°11.004 2°43.644 5.5 322 15.2 101580 59
2011-10-10 07:38:54 51°11.004 2°43.619 3 322 15.2 101590 59
2011-10-10 07:38:59 51°11.005 2°43.594 6.6 321 15.2 101590 59
2011-10-10 07:39:04 51°11.005 2°43.569 6.9 321 15.2 101540 59
2011-10-10 07:39:09 51°11.005 2°43.544 6.4 324 15.2 101540 59
2011-10-10 07:39:14 51°11.006 2°43.519 6.1 320 15.2 101550 58
2011-10-10 07:39:19 51°11.006 2°43.494 3.1 325 15.2 101550 58
2011-10-10 07:39:24 51°11.007 2°43.469 5.8 323 15.1 101550 59
2011-10-10 07:39:29 51°11.007 2°43.444 3 322 15.1 101550 59
2011-10-10 07:39:34 51°11.007 2°43.419 1.6 323 15.2 101530 58
2011-10-10 07:39:39 51°11.008 2°43.394 1.3 324 15.2 101530 58
2011-10-10 07:39:44 51°11.008 2°43.369 9.4 322 15.2 101520 58
2011-10-10 07:39:50 51°11.007 2°43.34 3.3 323 15.2 101520 58
2011-10-10 07:39:54 51°11.007 2°43.321 5 323 15.2 101520 58
2011-10-10 07:39:58 51°11.006 2°43.302 5.2 321 15.2 101520 58
2011-10-10 07:40:04 51°11.006 2°43.272 6.2 324 15.2 101560 58
2011-10-10 07:40:10 51°11.005 2°43.243 2 321 15.2 101560 58
2011-10-10 07:40:14 51°11.005 2°43.224 1.9 322 15.2 101580 58
2011-10-10 07:40:18 51°11.004 2°43.205 3.8 323 15.2 101580 58
2011-10-10 07:40:24 51°11.003 2°43.176 1 324 15.2 101550 58
2011-10-10 07:40:30 51°11.003 2°43.147 11.3 325 15.2 101550 58
2011-10-10 07:40:34 51°11.003 2°43.127 6.3 321 15.2 101550 58
2011-10-10 07:40:39 51°11.003 2°43.103 3.3 326 15.2 101550 58
2011-10-10 07:40:44 51°11.003 2°43.078 2.6 322 15.2 101560 58
2011-10-10 07:40:50 51°11.003 2°43.049 6.6 320 15.2 101560 58
2011-10-10 07:40:54 51°11.003 2°43.029 2.6 320 15.2 101520 58
2011-10-10 07:40:59 51°11.004 2°43.005 3.6 321 15.2 101520 58
2011-10-10 07:41:04 51°11.004 2°42.981 1.9 322 15.2 101510 57
2011-10-10 07:41:09 51°11.005 2°42.956 4.4 325 15.2 101510 57
2011-10-10 07:41:14 51°11.005 2°42.932 1.5 325 15.2 101500 58
2011-10-10 07:41:18 51°11.006 2°42.912 3.3 322 15.2 101500 58
2011-10-10 07:41:24 51°11.007 2°42.882 3.3 321 15.2 101510 58
2011-10-10 07:41:29 51°11.007 2°42.858 3.1 322 15.2 101510 58
2011-10-10 07:41:34 51°11.008 2°42.834 21.1 322 15.2 101510 58
2011-10-10 07:41:39 51°11.009 2°42.81 7.8 323 15.2 101510 58
2011-10-10 07:41:44 51°11.01 2°42.786 4.1 321 15.2 101530 58
2011-10-10 07:41:50 51°11.01 2°42.758 19.2 325 15.2 101530 58
2011-10-10 07:41:54 51°11.011 2°42.741 4.2 323 15.2 101480 58
2011-10-10 07:41:59 51°11.011 2°42.72 1.1 320 15.2 101480 58
2011-10-10 07:42:05 51°11.012 2°42.696 2.6 319 15.2 101560 58
2011-10-10 07:42:10 51°11.012 2°42.677 3.3 322 15.2 101560 58
2011-10-10 07:42:14 51°11.013 2°42.662 2.8 322 15.2 101530 58
2011-10-10 07:42:19 51°11.013 2°42.644 2.6 321 15.2 101530 58
2011-10-10 07:42:24 51°11.014 2°42.625 3.9 322 15.2 101560 58
2011-10-10 07:42:30 51°11.014 2°42.606 2.6 321 15.2 101560 58
2011-10-10 07:42:34 51°11.014 2°42.593 5.4 323 15.2 101580 58
2011-10-10 07:42:38 51°11.015 2°42.58 3.2 324 15.2 101580 58
2011-10-10 07:42:44 51°11.015 2°42.56 5.1 322 15.2 101590 58
2011-10-10 07:42:50 51°11.015 2°42.541 11 322 15.2 101590 58
2011-10-10 07:42:54 51°11.015 2°42.528 2.6 320 15.2 101560 58
2011-10-10 07:42:59 51°11.016 2°42.511 2.1 321 15.2 101560 58
2011-10-10 07:43:04 51°11.016 2°42.496 17.5 321 15.2 101570 58
2011-10-10 07:43:09 51°11.017 2°42.481 7.5 320 15.2 101570 58
2011-10-10 07:43:14 51°11.017 2°42.465 4.8 324 15.2 101580 58
2011-10-10 07:43:19 51°11.018 2°42.45 4.9 322 15.2 101580 58
2011-10-10 07:43:24 51°11.018 2°42.435 1.3 321 15.2 101580 58
2011-10-10 07:43:29 51°11.018 2°42.42 4.4 322 15.2 101580 58
2011-10-10 07:43:34 51°11.019 2°42.405 2.2 321 15.3 101600 58
2011-10-10 07:43:39 51°11.019 2°42.389 5 322 15.3 101600 58
2011-10-10 07:43:44 51°11.02 2°42.373 2.6 323 15.2 101580 57
2011-10-10 07:43:49 51°11.021 2°42.357 1.1 321 15.2 101580 57
2011-10-10 07:43:54 51°11.021 2°42.342 10.4 321 15.3 101570 58
2011-10-10 07:43:59 51°11.022 2°42.326 4.4 323 15.3 101570 58
2011-10-10 07:44:04 51°11.022 2°42.312 15.9 323 15.3 101580 58
2011-10-10 07:44:09 51°11.023 2°42.299 18.8 321 15.3 101580 58
2011-10-10 07:44:14 51°11.023 2°42.286 19.4 320 15.3 101590 58
2011-10-10 07:44:19 51°11.024 2°42.276 4.4 322 15.3 101590 58
2011-10-10 07:44:25 51°11.024 2°42.266 8.7 319 15.3 101590 58
2011-10-10 07:44:30 51°11.024 2°42.257 20.5 324 15.3 101590 58
2011-10-10 07:44:34 51°11.025 2°42.251 11.9 320 15.3 101600 58
2011-10-10 07:44:39 51°11.025 2°42.243 3.3 318 15.3 101600 58
2011-10-10 07:44:44 51°11.025 2°42.236 3.3 317 15.4 101580 58
2011-10-10 07:44:50 51°11.026 2°42.228 8.2 317 15.4 101580 58
2011-10-10 07:44:54 51°11.026 2°42.223 1.9 318 15.4 101600 58
2011-10-10 07:44:59 51°11.027 2°42.217 5.3 319 15.4 101600 58
2011-10-10 07:45:04 51°11.027 2°42.212 5.2 319 15.4 101600 58
2011-10-10 07:45:10 51°11.028 2°42.206 4.4 320 15.4 101600 58
2011-10-10 07:45:14 51°11.029 2°42.203 4.4 315 15.4 101590 58
2011-10-10 07:45:19 51°11.029 2°42.199 7.7 320 15.4 101590 58
2011-10-10 07:45:24 51°11.029 2°42.195 8.1 317 15.4 101580 58
2011-10-10 07:45:29 51°11.03 2°42.191 3.4 320 15.4 101580 58
2011-10-10 07:45:34 51°11.031 2°42.186 9.1 321 15.4 101590 57
2011-10-10 07:45:39 51°11.032 2°42.183 4.4 316 15.4 101590 57
2011-10-10 07:45:44 51°11.033 2°42.179 8.9 316 15.4 101590 58
2011-10-10 07:45:49 51°11.033 2°42.176 1.7 319 15.4 101590 58
2011-10-10 07:45:54 51°11.034 2°42.173 8.1 320 15.4 101590 58
2011-10-10 07:45:59 51°11.035 2°42.17 5.8 321 15.4 101590 58
2011-10-10 07:46:04 51°11.036 2°42.166 4.4 321 15.4 101590 58
2011-10-10 07:46:10 51°11.037 2°42.163 9.3 36 15.4 101590 58
2011-10-10 07:46:14 51°11.037 2°42.161 3.5 24 15.4 101580 58
2011-10-10 07:46:19 51°11.039 2°42.159 5.8 37 15.4 101580 58
2011-10-10 07:46:25 51°11.04 2°42.156 4.6 25 15.4 101590 56
2011-10-10 07:46:30 51°11.042 2°42.155 13.5 35 15.4 101590 56
2011-10-10 07:46:34 51°11.043 2°42.153 7.6 25 15.4 101590 58
2011-10-10 07:46:39 51°11.045 2°42.15 2.7 36 15.4 101590 58
2011-10-10 07:46:45 51°11.046 2°42.147 5.2 25 15.4 101590 58
2011-10-10 07:46:50 51°11.048 2°42.145 6.9 234 15.4 101590 58
2011-10-10 07:46:55 51°11.049 2°42.144 3.8 27 15.4 101590 58
2011-10-10 07:47:01 51°11.051 2°42.143 7.7 304 15.4 101590 58
2011-10-10 07:47:06 51°11.052 2°42.143 7.2 21 15.5 101600 57
2011-10-10 07:47:11 51°11.053 2°42.142 5.2 236 15.5 101600 57
2011-10-10 07:47:17 51°11.055 2°42.143 2.8 25 15.5 101610 58
2011-10-10 07:47:22 51°11.056 2°42.143 16.6 305 15.5 101610 58
2011-10-10 07:47:27 51°11.057 2°42.144 1.9 25 15.5 101600 58
2011-10-10 07:47:32 51°11.058 2°42.145 5.3 245 15.5 101600 58
2011-10-10 07:47:37 51°11.06 2°42.146 4.4 25 15.5 101620 58
2011-10-10 07:47:42 51°11.061 2°42.147 4.4 248 15.5 101620 58
2011-10-10 07:47:46 51°11.062 2°42.149 2.2 24 15.6 101610 58
2011-10-10 07:47:51 51°11.063 2°42.15 1.6 305 15.6 101610 58
2011-10-10 07:47:56 51°11.064 2°42.153 2.8 250 15.6 101610 58
2011-10-10 07:48:02 51°11.064 2°42.155 1.6 304 15.6 101610 58
2011-10-10 07:48:06 51°11.065 2°42.157 2.6 254 15.6 101640 58
2011-10-10 07:48:11 51°11.065 2°42.158 9.6 307 15.6 101640 58
2011-10-10 07:48:16 51°11.066 2°42.16 19.3 257 15.6 101640 58
2011-10-10 07:48:21 51°11.066 2°42.162 8.5 281 15.6 101640 58
2011-10-10 07:48:26 51°11.067 2°42.164 2 255 15.6 101640 58
2011-10-10 07:48:30 51°11.067 2°42.165 8.6 260 15.6 101640 58
2011-10-10 07:48:35 51°11.067 2°42.167 18.4 260 15.6 101650 58
2011-10-10 07:48:40 51°11.067 2°42.169 8.3 259 15.6 101650 58
2011-10-10 07:48:45 51°11.068 2°42.171 7 262 15.6 101690 58
2011-10-10 07:48:50 51°11.068 2°42.173 7.6 304 15.6 101690 58
2011-10-10 07:48:54 51°11.068 2°42.174 8.6 263 15.6 101670 58
2011-10-10 07:48:59 51°11.068 2°42.176 2.4 303 15.6 101670 58
2011-10-10 07:49:04 51°11.069 2°42.178 15.9 263 15.7 101650 55
2011-10-10 07:49:09 51°11.069 2°42.181 11.8 262 15.7 101650 55
2011-10-10 07:49:14 51°11.069 2°42.183 9.6 263 15.7 101660 57
2011-10-10 07:49:19 51°11.069 2°42.184 4.4 303 15.7 101660 57
2011-10-10 07:49:24 51°11.069 2°42.186 10.8 264 15.7 101660 58
2011-10-10 07:49:30 51°11.069 2°42.189 10.4 265 15.7 101660 58
2011-10-10 07:49:34 51°11.069 2°42.191 9.9 264 15.7 101680 57
2011-10-10 07:49:38 51°11.069 2°42.192 4 301 15.7 101680 57
2011-10-10 07:49:44 51°11.069 2°42.195 5.3 269 15.7 101660 58
2011-10-10 07:49:49 51°11.069 2°42.197 7.9 305 15.7 101660 58
2011-10-10 07:49:54 51°11.069 2°42.199 5.6 270 15.7 101680 57
2011-10-10 07:49:59 51°11.069 2°42.201 4.4 266 15.7 101680 57
2011-10-10 07:50:04 51°11.069 2°42.204 2.6 270 15.7 101700 58
2011-10-10 07:50:10 51°11.069 2°42.206 5.5 303 15.7 101700 58
2011-10-10 07:50:14 51°11.069 2°42.207 12.3 267 15.7 101700 58
2011-10-10 07:50:19 51°11.069 2°42.21 13 282 15.7 101700 58
2011-10-10 07:50:24 51°11.069 2°42.212 15.5 268 15.7 101700 57
2011-10-10 07:50:30 51°11.069 2°42.214 12.1 306 15.7 101700 57
2011-10-10 07:50:34 51°11.069 2°42.216 5.1 265 15.7 101690 58
2011-10-10 07:50:39 51°11.069 2°42.218 4.4 266 15.7 101690 58
2011-10-10 07:50:44 51°11.069 2°42.22 15.1 266 15.7 101690 57
2011-10-10 07:50:50 51°11.069 2°42.222 9.9 264 15.7 101690 57
2011-10-10 07:50:54 51°11.069 2°42.224 5.5 266 15.7 101660 57
2011-10-10 07:50:59 51°11.069 2°42.226 5.8 305 15.7 101660 57
2011-10-10 07:51:04 51°11.069 2°42.228 12.2 267 15.7 101690 57
2011-10-10 07:51:10 51°11.069 2°42.231 6.8 305 15.7 101690 57
2011-10-10 07:51:14 51°11.069 2°42.231 10.4 267 15.7 101650 57
2011-10-10 07:51:19 51°11.069 2°42.234 6.1 303 15.7 101650 57
2011-10-10 07:51:24 51°11.069 2°42.236 2.6 265 15.8 101670 57
2011-10-10 07:51:30 51°11.069 2°42.238 4.1 305 15.8 101670 57
2011-10-10 07:51:34 51°11.069 2°42.24 2.3 266 15.8 101730 57
2011-10-10 07:51:39 51°11.069 2°42.242 4.7 263 15.8 101730 57
2011-10-10 07:51:44 51°11.069 2°42.244 1.9 264 15.8 101660 55
2011-10-10 07:51:49 51°11.069 2°42.246 6.7 267 15.8 101660 55
2011-10-10 07:51:54 51°11.068 2°42.248 19.7 263 15.8 101660 57
2011-10-10 07:51:59 51°11.068 2°42.251 17 305 15.8 101660 57
2011-10-10 07:52:04 51°11.068 2°42.253 5.5 269 15.8 101690 56
2011-10-10 07:52:10 51°11.068 2°42.255 10.5 266 15.8 101690 56
2011-10-10 07:52:14 51°11.068 2°42.258 5.6 267 15.8 101700 57
2011-10-10 07:52:18 51°11.068 2°42.258 2.9 280 15.8 101700 57
2011-10-10 07:52:24 51°11.068 2°42.263 4.3 265 15.8 101670 57
2011-10-10 07:52:29 51°11.068 2°42.265 4.8 302 15.8 101670 57
2011-10-10 07:52:34 51°11.068 2°42.267 12.2 265 15.8 101640 57
2011-10-10 07:52:39 51°11.068 2°42.27 2.6 266 15.8 101640 57
2011-10-10 07:52:44 51°11.068 2°42.273 15.3 258 15.8 101690 57
2011-10-10 07:52:50 51°11.068 2°42.276 3 305 15.8 101690 57
2011-10-10 07:52:54 51°11.068 2°42.276 10.8 262 15.8 101670 57
2011-10-10 07:52:59 51°11.069 2°42.279 4.4 267 15.8 101670 57
2011-10-10 07:53:05 51°11.069 2°42.281 5.6 266 15.9 101660 57
2011-10-10 07:53:10 51°11.069 2°42.283 8.5 308 15.9 101660 57
2011-10-10 07:53:14 51°11.069 2°42.284 11.9 263 15.9 101690 56
2011-10-10 07:53:19 51°11.069 2°42.286 5.3 309 15.9 101690 56
2011-10-10 07:53:24 51°11.069 2°42.288 3.3 264 15.9 101690 57
2011-10-10 07:53:29 51°11.069 2°42.289 4.4 264 15.9 101690 57
2011-10-10 07:53:34 51°11.07 2°42.291 10.4 265 15.9 101690 57
2011-10-10 07:53:39 51°11.07 2°42.293 11.3 305 15.9 101690 57
2011-10-10 07:53:44 51°11.07 2°42.296 6.3 264 16 101680 57
2011-10-10 07:53:50 51°11.07 2°42.298 2.4 307 16 101680 57
2011-10-10 07:53:54 51°11.07 2°42.301 11.1 266 16 101660 57
2011-10-10 07:53:59 51°11.07 2°42.302 3.3 263 16 101660 57
2011-10-10 07:54:04 51°11.07 2°42.304 5.8 265 16 101700 57
2011-10-10 07:54:10 51°11.07 2°42.307 15.8 261 16 101700 57
2011-10-10 07:54:14 51°11.07 2°42.308 2.6 262 16 101680 57
2011-10-10 07:54:19 51°11.07 2°42.31 10.2 281 16 101680 57
2011-10-10 07:54:24 51°11.07 2°42.314 1.8 265 16 101710 55
2011-10-10 07:54:30 51°11.07 2°42.315 12.7 305 16 101710 55
2011-10-10 07:54:34 51°11.07 2°42.318 18.8 257 16 101660 56
2011-10-10 07:54:39 51°11.07 2°42.319 7.5 259 16 101660 56
2011-10-10 07:54:44 51°11.07 2°42.322 3.3 264 16 101680 57
2011-10-10 07:54:50 51°11.07 2°42.325 1.8 263 16 101680 57
2011-10-10 07:54:54 51°11.07 2°42.326 11.5 266 16.1 101670 56
2011-10-10 07:54:59 51°11.07 2°42.329 5.6 263 16.1 101670 56
2011-10-10 07:55:04 51°11.07 2°42.33 5.8 265 16.1 101650 56
2011-10-10 07:55:10 51°11.07 2°42.334 1 306 16.1 101650 56
2011-10-10 07:55:14 51°11.07 2°42.336 6.1 263 16.1 101650 56
2011-10-10 07:55:19 51°11.07 2°42.337 2.6 305 16.1 101650 56
2011-10-10 07:55:25 51°11.07 2°42.341 4.9 266 16.1 101710 56
2011-10-10 07:55:30 51°11.069 2°42.341 3.9 305 16.1 101710 56
2011-10-10 07:55:34 51°11.069 2°42.345 12.9 265 16.1 101670 55
2011-10-10 07:55:39 51°11.069 2°42.346 4.9 304 16.1 101670 55
2011-10-10 07:55:44 51°11.069 2°42.348 2.6 267 16.1 101680 56
2011-10-10 07:55:49 51°11.069 2°42.35 5 265 16.1 101680 56
2011-10-10 07:55:54 51°11.069 2°42.352 8.6 265 16.1 101680 56
2011-10-10 07:55:59 51°11.068 2°42.353 3.2 305 16.1 101680 56
2011-10-10 07:56:04 51°11.068 2°42.355 11.2 265 16.2 101660 56
2011-10-10 07:56:10 51°11.068 2°42.358 4.4 305 16.2 101660 56
2011-10-10 07:56:14 51°11.068 2°42.359 4.7 265 16.2 101680 55
2011-10-10 07:56:18 51°11.068 2°42.361 3.3 281 16.2 101680 55
2011-10-10 07:56:24 51°11.068 2°42.363 10.1 264 16.2 101650 56
2011-10-10 07:56:30 51°11.068 2°42.365 8.3 305 16.2 101650 56
2011-10-10 07:56:34 51°11.068 2°42.368 11.1 265 16.2 101680 56
2011-10-10 07:56:39 51°11.068 2°42.37 4.5 263 16.2 101680 56
2011-10-10 07:56:44 51°11.068 2°42.372 10.4 265 16.2 101650 56
2011-10-10 07:56:50 51°11.068 2°42.373 3.6 305 16.2 101650 56
2011-10-10 07:56:54 51°11.068 2°42.376 6.1 265 16.2 101660 57
2011-10-10 07:56:59 51°11.068 2°42.377 2.4 266 16.2 101660 57
2011-10-10 07:57:04 51°11.068 2°42.379 15.7 263 16.2 101690 54
2011-10-10 07:57:10 51°11.068 2°42.382 2 304 16.2 101690 54
2011-10-10 07:57:14 51°11.068 2°42.385 4 262 16.2 101690 55
2011-10-10 07:57:19 51°11.068 2°42.387 11.3 264 16.2 101690 55
2011-10-10 07:57:24 51°11.068 2°42.389 3.4 265 16.2 101720 56
2011-10-10 07:57:30 51°11.068 2°42.393 4.7 269 16.2 101720 56
2011-10-10 07:57:34 51°11.068 2°42.393 10.8 263 16.2 101660 56
2011-10-10 07:57:39 51°11.068 2°42.395 1.7 303 16.2 101660 56
2011-10-10 07:57:44 51°11.068 2°42.398 1.9 265 16.2 101660 56
2011-10-10 07:57:50 51°11.068 2°42.401 4.4 304 16.2 101660 56
2011-10-10 07:57:54 51°11.068 2°42.402 6.4 265 16.3 101690 55
2011-10-10 07:57:59 51°11.068 2°42.405 1.5 265 16.3 101690 55
2011-10-10 07:58:05 51°11.068 2°42.408 2.4 266 16.3 101740 55
2011-10-10 07:58:10 51°11.068 2°42.41 3.7 263 16.3 101740 55
2011-10-10 07:58:14 51°11.068 2°42.411 18.3 263 16.3 101710 55
2011-10-10 07:58:19 51°11.068 2°42.414 1.8 281 16.3 101710 55
2011-10-10 07:58:24 51°11.068 2°42.416 10.6 261 16.3 101690 55
2011-10-10 07:58:30 51°11.068 2°42.42 1.9 261 16.3 101690 55
2011-10-10 07:58:34 51°11.068 2°42.419 3 264 16.3 101700 55
2011-10-10 07:58:39 51°11.068 2°42.423 18 306 16.3 101700 55
2011-10-10 07:58:44 51°11.068 2°42.424 7.7 265 16.3 101650 55
2011-10-10 07:58:50 51°11.068 2°42.427 14 263 16.3 101650 55
2011-10-10 07:58:54 51°11.068 2°42.429 14.4 260 16.3 101640 55
2011-10-10 07:58:59 51°11.068 2°42.432 12 263 16.3 101640 55
2011-10-10 07:59:04 51°11.068 2°42.434 9 264 16.3 101680 55
2011-10-10 07:59:09 51°11.068 2°42.435 12.1 307 16.3 101680 55
2011-10-10 07:59:14 51°11.068 2°42.439 4.2 262 16.3 101630 55
2011-10-10 07:59:19 51°11.068 2°42.44 12.2 265 16.3 101630 55
2011-10-10 07:59:24 51°11.068 2°42.441 5.5 263 16.3 101670 55
2011-10-10 07:59:30 51°11.068 2°42.444 2.6 304 16.3 101670 55
2011-10-10 07:59:34 51°11.068 2°42.447 2.1 263 16.4 101680 55
2011-10-10 07:59:38 51°11.068 2°42.447 14 261 16.4 101680 55
2011-10-10 07:59:44 51°11.068 2°42.45 3.3 265 16.4 101670 54
2011-10-10 07:59:50 51°11.068 2°42.452 9.9 304 16.4 101670 54
2011-10-10 07:59:54 51°11.068 2°42.455 4.9 264 16.4 101670 55
2011-10-10 07:59:59 51°11.068 2°42.456 1.6 302 16.4 101670 55
2011-10-10 08:00:04 51°11.067 2°42.458 11.9 266 16.4 101690 55
2011-10-10 08:00:10 51°11.068 2°42.46 5.2 262 16.4 101690 55
2011-10-10 08:00:14 51°11.068 2°42.462 3.2 260 16.4 101650 54
2011-10-10 08:00:19 51°11.068 2°42.464 7.2 282 16.4 101650 54
2011-10-10 08:00:24 51°11.068 2°42.466 14 264 16.4 101670 54
2011-10-10 08:00:30 51°11.068 2°42.469 5.8 303 16.4 101670 54
2011-10-10 08:00:34 51°11.068 2°42.471 4.4 264 16.4 101660 55
2011-10-10 08:00:39 51°11.068 2°42.472 2.8 263 16.4 101660 55
2011-10-10 08:00:44 51°11.068 2°42.475 5 260 16.4 101700 55
2011-10-10 08:00:49 51°11.068 2°42.477 13.7 262 16.4 101700 55
2011-10-10 08:00:54 51°11.068 2°42.478 3.3 265 16.4 101630 55
2011-10-10 08:00:59 51°11.068 2°42.481 4.4 304 16.4 101630 55
2011-10-10 08:01:04 51°11.068 2°42.483 3.5 263 16.4 101650 55
2011-10-10 08:01:10 51°11.068 2°42.486 7.9 263 16.4 101650 55
2011-10-10 08:01:14 51°11.068 2°42.486 4.4 265 16.4 101640 55
2011-10-10 08:01:18 51°11.068 2°42.489 6.1 286 16.4 101640 55
2011-10-10 08:01:24 51°11.068 2°42.491 4.4 266 16.4 101660 55
2011-10-10 08:01:29 51°11.068 2°42.494 2.6 304 16.4 101660 55
2011-10-10 08:01:34 51°11.068 2°42.495 8.2 265 16.4 101690 55
2011-10-10 08:01:39 51°11.068 2°42.496 5.8 265 16.4 101690 55
2011-10-10 08:01:44 51°11.068 2°42.499 2.6 265 16.4 101680 55
2011-10-10 08:01:50 51°11.068 2°42.502 1.5 305 16.4 101680 55
2011-10-10 08:01:54 51°11.068 2°42.502 12.5 265 16.4 101660 55
2011-10-10 08:01:59 51°11.068 2°42.504 11.7 265 16.4 101660 55
2011-10-10 08:02:04 51°11.069 2°42.506 10.4 266 16.4 101660 55
2011-10-10 08:02:10 51°11.069 2°42.51 2.3 305 16.4 101660 55
2011-10-10 08:02:14 51°11.069 2°42.511 2.3 266 16.4 101670 55
2011-10-10 08:02:19 51°11.069 2°42.513 4.6 281 16.4 101670 55
2011-10-10 08:02:24 51°11.069 2°42.515 14.3 265 16.4 101670 53
2011-10-10 08:02:30 51°11.069 2°42.517 13.7 266 16.4 101670 53
2011-10-10 08:02:34 51°11.069 2°42.519 11.1 265 16.4 101670 55
2011-10-10 08:02:39 51°11.07 2°42.521 4.2 303 16.4 101670 55
2011-10-10 08:02:44 51°11.07 2°42.522 4.7 266 16.4 101670 55
2011-10-10 08:02:50 51°11.072 2°42.525 3.8 305 16.4 101670 55
2011-10-10 08:02:54 51°11.074 2°42.526 8.8 266 16.4 101670 55
2011-10-10 08:02:59 51°11.077 2°42.528 4.5 32 16.4 101670 55
2011-10-10 08:03:04 51°11.081 2°42.531 16.1 24 16.4 101640 55
2011-10-10 08:03:09 51°11.086 2°42.534 6.9 56 16.4 101640 55
2011-10-10 08:03:14 51°11.091 2°42.537 14.8 24 16.4 101670 55
2011-10-10 08:03:19 51°11.097 2°42.541 1.3 37 16.4 101670 55
2011-10-10 08:03:24 51°11.102 2°42.547 4.4 25 16.4 101690 53
2011-10-10 08:03:29 51°11.108 2°42.554 8.2 56 16.4 101690 53
2011-10-10 08:03:34 51°11.112 2°42.563 15.5 22 16.4 101670 54
2011-10-10 08:03:40 51°11.117 2°42.576 8.1 36 16.4 101670 54
2011-10-10 08:03:46 51°11.121 2°42.589 8.5 20 16.4 101660 55
2011-10-10 08:03:50 51°11.121 2°42.599 11.5 54 16.4 101660 55
2011-10-10 08:03:55 51°11.123 2°42.611 13.5 44 16.4 101640 54
2011-10-10 08:04:01 51°11.121 2°42.627 15 39 16.4 101640 54
2011-10-10 08:04:06 51°11.119 2°42.641 14.9 36 16.4 101660 55
2011-10-10 08:04:10 51°11.116 2°42.651 10.6 39 16.4 101660 55
2011-10-10 08:04:15 51°11.115 2°42.667 11.1 32 16.4 101630 54
2011-10-10 08:04:20 51°11.111 2°42.682 13 44 16.4 101630 54
2011-10-10 08:04:25 51°11.11 2°42.701 11.6 40 16.4 101600 55
2011-10-10 08:04:30 51°11.105 2°42.718 10 35 16.4 101600 55
2011-10-10 08:04:35 51°11.104 2°42.738 11.3 35 16.4 101580 54
2011-10-10 08:04:40 51°11.1 2°42.758 8.6 41 16.4 101580 54
2011-10-10 08:04:45 51°11.1 2°42.78 11.6 41 16.4 101600 55
2011-10-10 08:04:50 51°11.097 2°42.801 9.5 40 16.4 101600 55
2011-10-10 08:04:54 51°11.096 2°42.819 9.9 41 16.4 101610 55
2011-10-10 08:04:59 51°11.095 2°42.844 11.4 35 16.4 101610 55
2011-10-10 08:05:04 51°11.095 2°42.869 14.6 41 16.4 101610 53
2011-10-10 08:05:10 51°11.095 2°42.898 11.9 55 16.4 101610 53
2011-10-10 08:05:14 51°11.096 2°42.919 11.8 43 16.4 101620 55
2011-10-10 08:05:19 51°11.098 2°42.945 9.3 38 16.4 101620 55
2011-10-10 08:05:24 51°11.099 2°42.971 9.6 27 16.4 101620 55
2011-10-10 08:05:30 51°11.102 2°43.003 9 36 16.4 101620 55
2011-10-10 08:05:34 51°11.105 2°43.023 7.3 26 16.4 101620 54
2011-10-10 08:05:39 51°11.107 2°43.049 7 57 16.4 101620 54
2011-10-10 08:05:44 51°11.111 2°43.075 8.2 20 16.4 101630 55
2011-10-10 08:05:49 51°11.114 2°43.1 7.9 59 16.4 101630 55
2011-10-10 08:05:54 51°11.118 2°43.126 7.4 26 16.4 101630 54
2011-10-10 08:05:59 51°11.121 2°43.152 9 35 16.4 101630 54
2011-10-10 08:06:04 51°11.124 2°43.177 12.4 22 16.4 101640 54
2011-10-10 08:06:10 51°11.128 2°43.208 9.5 55 16.4 101640 54